Location: Newark
(38.1089°N, 103.8675°W)
Time: 01:35:12
(UTC+00:00)

Envisat - Pass Details

Date: 21 December 2019
Orbit: 764 x 766 km, 98.1° (Epoch: 23 January)

Event Time Altitude Azimuth Distance (km) Brightness Sun altitude
Rises 00:43:10 0° 161° (SSE) 3,218 6.3 -12.3°
Reaches altitude 10° 00:45:28 10° 160° (SSE) 2,295 5.5 -12.8°
Maximum altitude 00:50:30 76° 76° (ENE) 793 2.9 -13.7°
Drops below altitude 10° 00:55:36 10° 351° (N) 2,310 5.4 -14.7°
Sets 00:57:55 0° 350° (N) 3,240 6.2 -15.1°
